Sturgeon Bay, WI

4:29 PM CST on November 13, 2019 (GMT -0600)
Door County Cherryland

Weather History for KSUE - July, 2019

Change the Weather History Date:

Wednesday, July 31, 2019

  Actual Average Record
Temperature  
Mean Temperature 60 °F -  
Max Temperature 71 °F 78 °F 96 °F (2006)
Min Temperature 51 °F 58 °F 37 °F (1918)
Degree Days  
Heating Degree Days 4    
Growing Degree Days 10 (Base 50)    
Moisture  
Dew Point 53 °F    
Average Humidity 73    
Maximum Humidity 100    
Minimum Humidity 51    
Precipitation  
Precipitation 0.00 in - - ()
Sea Level Pressure  
Sea Level Pressure 30.20 in    
Wind  
Wind Speed 2 mph (ESE)    
Max Wind Speed 7 mph    
Max Gust Speed -    
Visibility 10 miles    
Events      
Averages and records for this station are not official NWS values.
T = Trace of Precipitation, MM = Missing Value Source: NWS Daily Summary

Daily Weather History Graph

Daily Weather History Graph

Search for Another Location

Airport or City:

Astronomy

Jul. 31, 2019 Rise Set
Actual Time 5:34 AM CDT 8:17 PM CDT
Civil Twilight 5:00 AM CDT 8:50 PM CDT
Nautical Twilight 4:17 AM CDT 9:33 PM CDT
Astronomical Twilight 3:28 AM CDT 10:22 PM CDT
Moon 4:44 AM CDT (7/31) 8:18 PM CDT (7/31)
Length of Visible Light 15h 50m
Length of Day
14h 43m
Waning Crescent, 0% of the Moon is Illuminated
Jul 31
Waning Crescent
Jul 31
New
Aug 7
First Quarter
Aug 15
Full
Aug 23
Last Quarter

Hourly Weather History & Observations

Time (CDT) Temp. Dew Point Humidity Pressure Visibility Wind Dir Wind Speed Gust Speed Precip Events Conditions
12:56 AM 57.0 °F 54.0 °F 89% 30.15 in 10.0 mi Calm Calm - N/A   Clear
1:56 AM 54.0 °F 53.1 °F 97% 30.17 in 10.0 mi Calm Calm - N/A   Clear
2:56 AM 54.0 °F 53.1 °F 97% 30.17 in 10.0 mi Calm Calm - N/A   Clear
3:56 AM 53.1 °F 52.0 °F 96% 30.18 in 10.0 mi Calm Calm - N/A   Clear
4:56 AM 53.1 °F 52.0 °F 96% 30.19 in 10.0 mi Calm Calm - N/A   Clear
5:56 AM 51.1 °F 51.1 °F 100% 30.19 in 10.0 mi Calm Calm - N/A   Clear
6:56 AM 55.0 °F 55.0 °F 100% 30.21 in 10.0 mi Calm Calm - N/A   Clear
7:56 AM 63.0 °F 52.0 °F 67% 30.21 in 10.0 mi Calm Calm - N/A   Clear
8:56 AM 64.9 °F 54.0 °F 68% 30.22 in 10.0 mi Variable 3.5 mph - N/A   Clear
9:56 AM 66.0 °F 53.1 °F 63% 30.22 in 10.0 mi North 5.8 mph - N/A   Clear
10:56 AM 66.0 °F 52.0 °F 60% 30.23 in 10.0 mi North 6.9 mph - N/A   Clear
11:56 AM 66.9 °F 53.1 °F 61% 30.23 in 10.0 mi NNW 4.6 mph - N/A   Clear
12:56 PM 68.0 °F 52.0 °F 56% 30.22 in 10.0 mi North 6.9 mph - N/A   Clear
1:56 PM 70.0 °F 54.0 °F 57% 30.22 in 10.0 mi Variable 5.8 mph - N/A   Clear
2:56 PM 70.0 °F 54.0 °F 57% 30.21 in 10.0 mi North 5.8 mph - N/A   Clear
3:56 PM 70.0 °F 53.1 °F 55% 30.21 in 10.0 mi Calm Calm - N/A   Clear
4:56 PM 70.0 °F 52.0 °F 53% 30.19 in 10.0 mi ESE 5.8 mph - N/A   Clear
5:56 PM 70.0 °F 51.1 °F 51% 30.19 in 10.0 mi ESE 3.5 mph - N/A   Clear
6:56 PM 69.1 °F 52.0 °F 54% 30.18 in 10.0 mi SE 4.6 mph - N/A   Clear
7:21 PM 68.0 °F 53.6 °F 60% 30.19 in 10.0 mi South 3.5 mph - N/A   Partly Cloudy
7:56 PM 66.0 °F 53.1 °F 63% 30.18 in 10.0 mi South 3.5 mph - N/A   Clear
8:56 PM 62.1 °F 53.1 °F 72% 30.19 in 10.0 mi Calm Calm - N/A   Clear
9:56 PM 59.0 °F 53.1 °F 81% 30.19 in 10.0 mi South 3.5 mph - N/A   Clear
10:56 PM 57.9 °F 53.1 °F 84% 30.18 in 10.0 mi South 3.5 mph - N/A   Clear
11:56 PM 57.9 °F 52.0 °F 81% 30.18 in 10.0 mi Calm Calm - N/A   Clear